Weather History for Santa Barbara, CA

Change the Weather History Date:

Sunday, November 24, 2013

  Actual Average Record
Temperature  
Mean Temperature 56 °F 55 °F  
Max Temperature 67 °F 67 °F 82 °F (1956)
Min Temperature 45 °F 43 °F 31 °F (1941)
Degree Days  
Heating Degree Days 9 10  
Month to date heating degree days 149 194  
Since 1 July heating degree days 331 411  
Cooling Degree Days 0 0  
Month to date cooling degree days 0 0  
Year to date cooling degree days 285 186  
Growing Degree Days 6 (Base 50)    
Moisture  
Dew Point 45 °F    
Average Humidity 65    
Maximum Humidity 86    
Minimum Humidity 43    
Precipitation  
Precipitation 0.00 in 0.05 in 1.66 in (2001)
Month to date precipitation 0.33 1.24  
Year to date precipitation 4.14 14.51  
Since 1 July precipitation 0.79 2.46  
Sea Level Pressure  
Sea Level Pressure 30.14 in    
Wind  
Wind Speed 3 mph (West)    
Max Wind Speed 8 mph    
Max Gust Speed 54 mph    
Visibility 10 miles    
Events      
T = Trace of Precipitation, MM = Missing Value Source: NWS Daily Summary

Daily Weather History Graph

Daily Weather History Graph

Search for Another Location

Airport:

Trip Planner

Search our weather history database for the weather conditions in past years. The results will help you decide how hot, cold, wet, or windy it might be!

Date:

Astronomy

Nov. 24, 2013 Rise Set
Actual Time 6:41 AM PST 4:50 PM PST
Civil Twilight 6:14 AM PST 5:17 PM PST
Nautical Twilight 5:43 AM PST 5:48 PM PST
Astronomical Twilight 5:13 AM PST 6:18 PM PST
Moon 11:12 PM PST (11/24) 11:39 AM PST (11/24)
Length of Visible Light 11h 03m
Length of Day
10h 09m
Waning Gibbous, 59% of the Moon is Illuminated
Nov 24
Waning Gibbous
Nov 25
Last Quarter
Dec 2
New
Dec 9
First Quarter
Dec 17
Full

Hourly Weather History & Observations

Time (PST) Temp. Windchill Dew Point Humidity Pressure Visibility Wind Dir Wind Speed Gust Speed Precip Events Conditions
12:53 AM 53.1 °F - 44.1 °F 71% 30.08 in 10.0 mi Calm Calm - N/A   Clear
1:53 AM 48.9 °F - 44.1 °F 83% 30.09 in 10.0 mi Calm Calm - N/A   Clear
2:53 AM 51.1 °F - 44.1 °F 77% 30.09 in 10.0 mi Calm Calm - N/A   Clear
3:53 AM 50.0 °F - 44.1 °F 80% 30.09 in 10.0 mi Calm Calm - N/A   Clear
4:53 AM 50.0 °F - 44.1 °F 80% 30.10 in 10.0 mi Calm Calm - N/A   Clear
5:53 AM 48.9 °F - 44.1 °F 83% 30.11 in 10.0 mi Calm Calm - N/A   Clear
6:53 AM 46.0 °F 44.8 °F 41.0 °F 83% 30.13 in 10.0 mi NNE 3.5 mph - N/A   Clear
7:53 AM 54.0 °F - 44.1 °F 69% 30.14 in 10.0 mi Calm Calm - N/A   Clear
8:53 AM 62.1 °F - 48.0 °F 60% 30.16 in 10.0 mi Calm Calm - N/A   Clear
9:53 AM 64.9 °F - 46.9 °F 52% 30.17 in 10.0 mi SW 4.6 mph - N/A   Clear
10:53 AM 64.9 °F - 46.0 °F 50% 30.17 in 10.0 mi SSW 6.9 mph - N/A   Clear
11:53 AM 66.0 °F - 46.0 °F 48% 30.15 in 10.0 mi SW 5.8 mph - N/A   Clear
12:53 PM 64.9 °F - 46.0 °F 50% 30.14 in 10.0 mi SW 6.9 mph - N/A   Partly Cloudy
1:53 PM 66.0 °F - 46.0 °F 48% 30.12 in 10.0 mi WSW 8.1 mph - N/A   Clear
2:53 PM 64.9 °F - 43.0 °F 45% 30.13 in 10.0 mi WSW 5.8 mph - N/A   Clear
3:53 PM 64.0 °F - 41.0 °F 43% 30.13 in 10.0 mi WSW 5.8 mph - N/A   Clear
4:53 PM 60.1 °F - 46.9 °F 62% 30.14 in 10.0 mi West 4.6 mph - N/A   Clear
5:53 PM 57.0 °F - 48.9 °F 74% 30.15 in 10.0 mi WNW 3.5 mph - N/A   Clear
6:53 PM 55.0 °F - 48.0 °F 77% 30.16 in 10.0 mi NNE 3.5 mph - N/A   Clear
7:53 PM 52.0 °F - 44.1 °F 74% 30.17 in 10.0 mi Calm Calm - N/A   Clear
8:53 PM 51.1 °F - 46.0 °F 83% 30.18 in 10.0 mi Calm Calm - N/A   Clear
9:39 PM 50.0 °F - 44.6 °F 82% 30.19 in 10.0 mi NNE 3.5 mph 54.1 mph N/A   Squalls
9:53 PM 51.1 °F - 44.1 °F 77% 30.19 in 10.0 mi NNE 3.5 mph - N/A   Clear
10:53 PM 48.0 °F - 44.1 °F 86% 30.19 in 10.0 mi Calm Calm - N/A   Clear
11:53 PM 46.9 °F - 43.0 °F 86% 30.20 in 10.0 mi Calm Calm - N/A   Clear